Location: Quaker Farms
(41.4276°N, 73.1557°W)
Time: 19:07:50
(UTC+00:00)

Transit 4A - All Passes

Search period start: 18 June 2021 00:00
Search period end: 28 June 2021 00:00
Orbit: 872 x 973 km, 66.8° (Epoch: 18 June)

Date Brightness Start Highest point End Pass type
(mag) Time Alt. Az. Time Alt. Az. Time Alt. Az.
18 Jun - 01:15:11 10° WNW 01:19:19 20° WSW 01:23:30 10° SSW visible
18 Jun - 12:52:41 10° ESE 12:54:51 12° ESE 12:57:00 10° E daylight
18 Jun - 14:34:14 10° SSW 14:40:17 84° ESE 14:46:15 10° NNE daylight
18 Jun - 16:23:04 10° W 16:27:21 20° NW 16:31:36 10° N daylight
18 Jun - 21:51:46 10° N 21:55:42 18° NE 21:59:36 10° E daylight
18 Jun - 23:37:00 10° NNW 23:42:51 90° ENE 23:48:44 10° SSE daylight
19 Jun - 01:25:52 10° WNW 01:28:19 13° WSW 01:30:47 10° SW visible
19 Jun - 12:59:43 10° SSE 13:03:50 19° ESE 13:07:55 10° ENE daylight
19 Jun - 14:43:35 10° SW 14:49:36 68° WNW 14:55:31 10° NNE daylight
19 Jun - 16:33:49 10° WNW 16:37:04 15° NW 16:40:19 10° N daylight
19 Jun - 22:00:38 10° N 22:05:20 25° NE 22:10:03 10° E daylight
19 Jun - 23:46:22 10° NW 23:52:06 62° WSW 23:57:52 10° SSE daylight
20 Jun - 13:07:47 10° SSE 13:12:55 29° ESE 13:17:55 10° NE daylight
20 Jun - 14:53:12 10° SW 14:59:00 47° NW 15:04:42 10° NNE daylight
20 Jun - 16:45:20 10° NW 16:46:53 11° NNW 16:48:26 10° NNW daylight
20 Jun - 22:09:37 10° NNW 22:14:54 34° NE 22:20:10 10° ESE daylight
20 Jun - 23:55:53 10° NW 00:01:17 40° WSW 00:06:42 10° S daylight
21 Jun - 13:16:20 10° S 13:22:02 44° ESE 13:27:37 10° NE daylight
21 Jun - 15:03:06 10° WSW 15:08:29 33° NW 15:13:47 10° NNE daylight
21 Jun - 20:34:53 10° NNE 20:36:31 11° NNE 20:38:08 10° NE daylight
21 Jun - 22:18:43 10° NNW 22:24:22 48° NE 22:30:01 10° SE daylight
22 Jun - 00:05:37 10° NW 00:10:23 27° WSW 00:15:12 10° SSW daylight
22 Jun - 13:25:15 10° SSW 13:31:14 66° ESE 13:37:06 10° NE daylight
22 Jun - 15:13:16 10° W 15:18:02 24° NW 15:22:46 10° N daylight
22 Jun - 20:43:05 10° N 20:46:19 15° NE 20:49:34 10° ENE daylight
22 Jun - 22:27:54 10° NNW 22:33:45 71° ENE 22:39:35 10° SE daylight
23 Jun - 00:15:44 10° WNW 00:19:26 17° WSW 00:23:08 10° SW daylight
23 Jun - 11:51:54 10° SE 11:54:57 14° ESE 11:57:58 10° ENE daylight
23 Jun - 13:34:26 10° SSW 13:40:30 86° WNW 13:46:27 10° NNE daylight
23 Jun - 15:23:45 10° W 15:27:42 18° NW 15:31:36 10° N daylight
23 Jun - 20:51:47 10° N 20:56:02 20° NE 21:00:16 10° E daylight
23 Jun - 22:37:12 10° NNW 22:43:02 80° WSW 22:48:55 10° SSE daylight
24 Jun - 00:27:16 10° W 00:28:24 11° W 00:29:32 10° WSW daylight
24 Jun - 11:59:26 10° SSE 12:03:57 22° ESE 12:08:25 10° ENE daylight
24 Jun - 13:43:54 10° SW 13:49:50 59° WNW 13:55:41 10° NNE daylight
24 Jun - 15:34:42 10° WNW 15:37:27 13° NW 15:40:11 10° N daylight
24 Jun - 21:00:43 10° N 21:05:39 27° NE 21:10:35 10° ESE daylight
24 Jun - 22:46:37 10° NW 22:52:16 53° WSW 22:57:57 10° S daylight
25 Jun - 12:07:42 10° S 12:13:03 34° ESE 12:18:17 10° NE daylight
25 Jun - 13:53:37 10° WSW 13:59:15 41° NW 14:04:50 10° NNE daylight
25 Jun - 21:09:44 10° NNW 21:15:10 38° NE 21:20:36 10° ESE daylight
25 Jun - 22:56:12 10° NW 23:01:25 35° WSW 23:06:41 10° S daylight
26 Jun - 12:16:23 10° S 12:22:12 50° ESE 12:27:54 10° NE daylight
26 Jun - 14:03:36 10° WSW 14:08:46 29° NW 14:13:53 10° NNE daylight
26 Jun - 19:34:34 10° N 19:36:55 12° NE 19:39:15 10° ENE daylight
26 Jun - 21:18:52 10° NNW 21:24:36 55° NE 21:30:21 10° SE daylight
26 Jun - 23:06:03 10° WNW 23:10:31 23° WSW 23:15:01 10° SSW daylight
27 Jun - 10:45:32 10° ESE 10:46:04 10° E 10:46:37 10° E daylight
27 Jun - 12:25:24 10° SSW 12:31:25 75° ESE 12:37:20 10° NNE daylight
27 Jun - 14:13:52 10° W 14:18:22 22° NW 14:22:49 10° N daylight
27 Jun - 19:43:02 10° N 19:46:41 17° NE 19:50:19 10° ENE daylight
27 Jun - 21:28:05 10° NNW 21:33:57 81° ENE 21:39:51 10° SSE daylight
27 Jun - 23:16:25 10° WNW 23:19:31 15° WSW 23:22:39 10° SW daylight
